SL-16 DEB, 18416

Orbit data source: Space-Track

SL-16 DEB, 18416 is space debris in LEO originally from a launch on Wed, 18 Mar 1987 UTC launched from the Tyuratam Missile And Space Complex (TTMTR). Debris objects in space refer to the collection of defunct objects orbiting the Earth. Examples of debris include non-operational satellites, rocket bodies, and fragments generated from explosions, collisions, or faulty payload assembly.

Loading next visibility...
Identifier
18416, 1987-027C
Orbit
LEO
Country
Flag of CISCIS
Related business
Manufacturer
Yuzhnoe
Mission
Spacecraft
Bus & Motor
SEP MOTOR COVER, Unknown motor
Mass
~0 kg wet, ~1 kg dry
Launch date (UTC)
1987-03-18 (39 years ago)
Launch vehicle
Unknown
Launch site
Tyuratam Missile And Space Complex (TTMTR)
Object type
Payload
Rocket body
Debris
Shape & HBR
Unknown
Radar Cross Section
Small (<0.1 m²)

Expand to show TLE details & history
Last TLE update: 10 hours ago

TLE from 10 hours ago
0 SL-16 DEB
1 18416U 87027C   25258.56945505  .00000100  00000-0  12545-3 0  9996
2 18416  71.0335  78.2611 0185228 128.8076 290.6384 13.77474922933872
Epoch: 2025-09-15T13:40Z
TLE epoch observation values (Epoch: 2025-09-15T13:40:00.916Z)
Latitude
52.96455°
Longitude
-94.57213°
Altitude
935.181 km
Speed
7.413 km/s
True Right ascension
07h 00m 48s
True Declination
52° 48' 11"
Sunlit
Object was in daylight at epoch
Visualization orbit readout
Latitude
Unknown
Longitude
Unknown
Altitude
Unknown
Speed
Unknown
Apparent Right ascension
Unknown
Apparent Declination
Unknown
Sunlit
N/A
Visualization observer readout
Local Sidereal Time
16:12:06
Azimuth
Unknown
Elevation
Unknown
Doppler factor
Unknown
Orbital elements
Apogee altitude
1,106.937 km
Perigee altitude
834.691 km
Semi-major axis
7,348.951 km
Eccentricity
0.01852
Inclination
71.0335°
RAAN
78.2611°
Arg. of periapsis
128.8076°
True anomaly
288.63613°
Mean anomaly
290.6384°
Eccentric anomaly
289.63886°
Mean motion
3.44513 °/min
Orbital period
104.5 mins
BSTAR
0.00012545
Loading maneuver chart data...
Computing Atmospheric mass density...
Loading historical data...
Loading historical data...
Loading historical data...
Loading historical data...
Loading historical data...
Loading historical data...
Loading historical data...

Documentation

Showing up to 5 results
|